Time,TemperatureF,DewpointF,PressureIn,WindDirection,WindDirectionDegrees,WindSpeedMPH,WindSpeedGustMPH,Humidity,HourlyPrecipIn,Conditions,Clouds,dailyrainin,SoftwareType,DateUTC
2013-03-09 00:00:00,35.7,26.5,30.39,ESE,118,4.0,4.0,69,0.00,CLR,,0.00,WeatherDisplay:10.37,2013-03-09 05:00:00,
2013-03-09 00:03:00,35.7,26.5,30.39,SE,124,4.6,4.6,69,0.00,CLR,,0.00,WeatherDisplay:10.37,2013-03-09 05:03:00,
2013-03-09 00:06:00,35.6,26.4,30.39,ESE,120,2.3,2.3,69,0.00,CLR,,0.00,WeatherDisplay:10.37,2013-03-09 05:06:00,
2013-03-09 00:11:00,35.5,26.7,30.39,ESE,116,3.5,3.5,70,0.00,CLR,,0.00,WeatherDisplay:10.37,2013-03-09 05:11:00,
2013-03-09 00:16:00,35.4,26.6,30.39,ESE,112,2.3,2.3,70,0.00,CLR,,0.00,WeatherDisplay:10.37,2013-03-09 05:16:00,
2013-03-09 00:21:00,35.3,26.5,30.39,ESE,116,2.3,2.3,70,0.00,CLR,,0.00,WeatherDisplay:10.37,2013-03-09 05:21:00,
2013-03-09 00:26:00,35.2,26.7,30.39,ESE,117,4.0,4.0,71,0.00,CLR,,0.00,WeatherDisplay:10.37,2013-03-09 05:26:00,
2013-03-09 00:31:00,35.1,26.6,30.39,ESE,122,2.3,2.3,71,0.00,CLR,,0.00,WeatherDisplay:10.37,2013-03-09 05:31:00,
2013-03-09 00:36:00,35.1,26.6,30.39,ESE,118,4.6,4.6,71,0.00,CLR,,0.00,WeatherDisplay:10.37,2013-03-09 05:36:00,
2013-03-09 00:41:00,35.0,26.5,30.39,ESE,120,2.3,2.3,71,0.00,CLR,,0.00,WeatherDisplay:10.37,2013-03-09 05:41:00,
2013-03-09 00:46:00,34.9,26.4,30.38,ESE,122,5.0,5.0,71,0.00,CLR,,0.00,WeatherDisplay:10.37,2013-03-09 05:46:00,
2013-03-09 00:51:00,34.7,26.6,30.38,ESE,122,3.5,3.5,72,0.00,CLR,,0.00,WeatherDisplay:10.37,2013-03-09 05:51:00,
2013-03-09 00:56:00,34.7,26.6,30.38,SE,126,4.0,4.0,72,0.00,CLR,,0.00,WeatherDisplay:10.37,2013-03-09 05:56:00,
2013-03-09 01:01:00,34.6,26.5,30.38,SE,130,4.0,4.0,72,0.00,CLR,,0.00,WeatherDisplay:10.37,2013-03-09 06:01:00,
2013-03-09 01:06:00,34.4,26.3,30.38,SE,131,2.3,2.3,72,0.00,CLR,,0.00,WeatherDisplay:10.37,2013-03-09 06:06:00,
2013-03-09 01:11:00,34.4,26.6,30.38,SE,129,1.1,1.1,73,0.00,CLR,,0.00,WeatherDisplay:10.37,2013-03-09 06:11:00,
2013-03-09 01:16:00,34.4,26.6,30.38,SE,135,4.0,4.0,73,0.00,CLR,,0.00,WeatherDisplay:10.37,2013-03-09 06:16:00,
2013-03-09 01:21:00,34.2,26.4,30.38,SE,135,1.1,1.1,73,0.00,CLR,,0.00,WeatherDisplay:10.37,2013-03-09 06:21:00,
2013-03-09 01:26:00,34.1,26.3,30.38,SE,135,2.3,2.3,73,0.00,CLR,,0.00,WeatherDisplay:10.37,2013-03-09 06:26:00,
2013-03-09 01:31:00,34.1,26.3,30.38,SE,132,2.0,2.0,73,0.00,CLR,,0.00,WeatherDisplay:10.37,2013-03-09 06:31:00,
2013-03-09 01:36:00,34.0,26.3,30.38,SE,132,2.3,2.3,73,0.00,CLR,,0.00,WeatherDisplay:10.37,2013-03-09 06:36:00,
2013-03-09 01:41:00,34.1,26.3,30.38,SE,136,2.3,2.3,73,0.00,CLR,,0.00,WeatherDisplay:10.37,2013-03-09 06:41:00,
2013-03-09 01:46:00,33.9,26.2,30.38,SE,137,2.0,2.0,73,0.00,CLR,,0.00,WeatherDisplay:10.37,2013-03-09 06:46:00,
2013-03-09 01:51:00,33.9,26.2,30.38,SE,133,4.0,4.0,73,0.00,CLR,,0.00,WeatherDisplay:10.37,2013-03-09 06:51:00,
2013-03-09 01:56:00,33.8,26.1,30.38,SE,129,3.5,3.5,73,0.00,CLR,,0.00,WeatherDisplay:10.37,2013-03-09 06:56:00,
2013-03-09 02:01:00,33.8,26.1,30.37,SE,130,2.3,2.3,73,0.00,CLR,,0.00,WeatherDisplay:10.37,2013-03-09 07:01:00,
2013-03-09 02:06:00,33.7,26.0,30.37,SE,129,4.0,4.0,73,0.00,CLR,,0.00,WeatherDisplay:10.37,2013-03-09 07:06:00,
2013-03-09 02:11:00,33.7,26.0,30.37,SE,129,2.3,2.3,73,0.00,CLR,,0.00,WeatherDisplay:10.37,2013-03-09 07:11:00,
2013-03-09 02:16:00,33.7,26.0,30.37,SE,129,2.0,2.0,73,0.00,CLR,,0.00,WeatherDisplay:10.37,2013-03-09 07:16:00,
2013-03-09 02:21:00,33.6,25.9,30.37,SE,129,1.1,1.1,73,0.00,CLR,,0.00,WeatherDisplay:10.37,2013-03-09 07:21:00,
2013-03-09 02:26:00,33.5,25.8,30.37,SE,130,1.1,0.0,73,0.00,CLR,,0.00,WeatherDisplay:10.37,2013-03-09 07:26:00,
2013-03-09 02:31:00,33.5,25.8,30.37,SE,129,1.1,1.1,73,0.00,CLR,,0.00,WeatherDisplay:10.37,2013-03-09 07:31:00,
2013-03-09 02:36:00,33.4,25.7,30.37,SE,130,0.0,0.0,73,0.00,CLR,,0.00,WeatherDisplay:10.37,2013-03-09 07:36:00,
2013-03-09 02:41:00,33.3,25.6,30.37,SE,129,0.0,0.0,73,0.00,CLR,,0.00,WeatherDisplay:10.37,2013-03-09 07:41:00,
2013-03-09 02:46:00,33.1,25.4,30.37,SE,129,0.0,0.0,73,0.00,CLR,,0.00,WeatherDisplay:10.37,2013-03-09 07:46:00,
2013-03-09 02:51:00,33.0,25.3,30.37,SE,129,1.1,0.0,73,0.00,CLR,,0.00,WeatherDisplay:10.37,2013-03-09 07:51:00,
2013-03-09 02:56:00,32.9,25.2,30.36,SE,130,1.1,1.1,73,0.00,CLR,,0.00,WeatherDisplay:10.37,2013-03-09 07:56:00,
2013-03-09 03:01:00,32.9,25.5,30.35,SE,129,2.3,2.3,74,0.00,CLR,,0.00,WeatherDisplay:10.37,2013-03-09 08:01:00,
2013-03-09 03:06:00,33.1,25.7,30.35,SE,129,1.1,1.1,74,0.00,CLR,,0.00,WeatherDisplay:10.37,2013-03-09 08:06:00,
2013-03-09 03:11:00,33.1,25.7,30.34,SE,130,1.1,0.0,74,0.00,CLR,,0.00,WeatherDisplay:10.37,2013-03-09 08:11:00,
2013-03-09 03:16:00,33.1,25.7,30.34,SE,129,2.3,2.3,74,0.00,CLR,,0.00,WeatherDisplay:10.37,2013-03-09 08:16:00,
2013-03-09 03:21:00,33.2,25.8,30.34,SE,131,2.3,2.3,74,0.00,CLR,,0.00,WeatherDisplay:10.37,2013-03-09 08:21:00,
2013-03-09 03:26:00,33.3,25.6,30.34,SE,132,4.0,4.0,73,0.00,CLR,,0.00,WeatherDisplay:10.37,2013-03-09 08:26:00,
2013-03-09 03:31:00,33.3,25.6,30.34,SE,133,1.1,0.0,73,0.00,CLR,,0.00,WeatherDisplay:10.37,2013-03-09 08:31:00,
2013-03-09 03:36:00,33.2,25.5,30.33,SE,133,1.1,0.0,73,0.00,CLR,,0.00,WeatherDisplay:10.37,2013-03-09 08:36:00,
2013-03-09 03:41:00,33.2,25.5,30.33,SE,133,1.1,1.1,73,0.00,CLR,,0.00,WeatherDisplay:10.37,2013-03-09 08:41:00,
2013-03-09 03:46:00,33.3,25.2,30.33,SE,133,0.0,0.0,72,0.00,CLR,,0.00,WeatherDisplay:10.37,2013-03-09 08:46:00,
2013-03-09 03:51:00,33.4,25.3,30.33,SE,133,2.0,2.0,72,0.00,CLR,,0.00,WeatherDisplay:10.37,2013-03-09 08:51:00,
2013-03-09 03:56:00,33.5,25.4,30.33,SE,133,1.1,0.0,72,0.00,CLR,,0.00,WeatherDisplay:10.37,2013-03-09 08:56:00,
2013-03-09 04:01:00,33.5,25.1,30.33,SE,133,0.0,0.0,71,0.00,CLR,,0.00,WeatherDisplay:10.37,2013-03-09 09:01:00,
2013-03-09 04:06:00,33.5,25.1,30.33,SE,133,2.0,2.0,71,0.00,CLR,,0.00,WeatherDisplay:10.37,2013-03-09 09:06:00,
2013-03-09 04:11:00,33.5,25.1,30.32,SE,136,1.1,1.1,71,0.00,CLR,,0.00,WeatherDisplay:10.37,2013-03-09 09:11:00,
2013-03-09 04:16:00,33.5,25.1,30.33,SE,136,1.1,0.0,71,0.00,CLR,,0.00,WeatherDisplay:10.37,2013-03-09 09:16:00,
2013-03-09 04:21:00,33.6,24.9,30.33,SE,139,4.0,4.0,70,0.00,CLR,,0.00,WeatherDisplay:10.37,2013-03-09 09:21:00,
2013-03-09 04:26:00,33.8,25.0,30.32,SE,140,4.0,4.0,70,0.00,CLR,,0.00,WeatherDisplay:10.37,2013-03-09 09:26:00,
2013-03-09 04:31:00,33.8,24.7,30.32,SE,143,4.6,4.6,69,0.00,CLR,,0.00,WeatherDisplay:10.37,2013-03-09 09:31:00,
2013-03-09 04:36:00,33.8,24.7,30.32,SE,145,4.0,4.0,69,0.00,CLR,,0.00,WeatherDisplay:10.37,2013-03-09 09:36:00,
2013-03-09 04:41:00,33.8,24.7,30.32,SE,145,2.0,2.0,69,0.00,CLR,,0.00,WeatherDisplay:10.37,2013-03-09 09:41:00,
2013-03-09 04:46:00,33.8,24.7,30.32,SE,145,2.3,2.3,69,0.00,CLR,,0.00,WeatherDisplay:10.37,2013-03-09 09:46:00,
2013-03-09 04:51:00,33.8,24.7,30.32,SE,145,2.3,0.0,69,0.00,CLR,,0.00,WeatherDisplay:10.37,2013-03-09 09:51:00,
2013-03-09 04:56:00,33.8,24.7,30.32,SSE,147,5.0,5.0,69,0.00,CLR,,0.00,WeatherDisplay:10.37,2013-03-09 09:56:00,
2013-03-09 05:01:00,33.8,24.4,30.33,SSE,147,2.3,2.3,68,0.00,CLR,,0.00,WeatherDisplay:10.37,2013-03-09 10:01:00,
2013-03-09 05:06:00,33.9,24.4,30.33,SSE,147,4.0,4.0,68,0.00,CLR,,0.00,WeatherDisplay:10.37,2013-03-09 10:06:00,
2013-03-09 05:11:00,33.9,24.4,30.32,SSE,148,2.3,2.3,68,0.00,CLR,,0.00,WeatherDisplay:10.37,2013-03-09 10:11:00,
2013-03-09 05:16:00,34.1,24.6,30.32,SSE,148,4.0,4.0,68,0.00,CLR,,0.00,WeatherDisplay:10.37,2013-03-09 10:16:00,
2013-03-09 05:21:00,34.4,24.9,30.32,SSE,149,3.5,3.5,68,0.00,CLR,,0.00,WeatherDisplay:10.37,2013-03-09 10:21:00,
2013-03-09 05:26:00,34.4,24.6,30.32,SSE,153,7.0,7.0,67,0.00,CLR,,0.00,WeatherDisplay:10.37,2013-03-09 10:26:00,
2013-03-09 05:31:00,34.4,24.6,30.32,SE,144,2.3,2.3,67,0.00,CLR,,0.00,WeatherDisplay:10.37,2013-03-09 10:31:00,
2013-03-09 05:36:00,34.6,24.8,30.32,SE,146,5.0,5.0,67,0.00,CLR,,0.00,WeatherDisplay:10.37,2013-03-09 10:36:00,
2013-03-09 05:41:00,34.7,24.9,30.32,SSE,155,5.0,5.0,67,0.00,CLR,,0.00,WeatherDisplay:10.37,2013-03-09 10:41:00,
2013-03-09 05:46:00,34.6,24.8,30.32,South,170,3.5,3.5,67,0.00,CLR,,0.00,WeatherDisplay:10.37,2013-03-09 10:46:00,
2013-03-09 05:51:00,34.6,24.8,30.32,South,187,3.5,3.5,67,0.00,CLR,,0.00,WeatherDisplay:10.37,2013-03-09 10:51:00,
2013-03-09 05:57:00,34.6,24.8,30.32,South,183,6.9,6.9,67,0.00,CLR,,0.00,WeatherDisplay:10.37,2013-03-09 10:57:00,
2013-03-09 06:02:00,34.6,24.8,30.32,South,170,4.0,4.0,67,0.00,CLR,,0.00,WeatherDisplay:10.37,2013-03-09 11:02:00,
2013-03-09 06:07:00,34.6,24.8,30.32,South,180,2.0,2.0,67,0.00,CLR,,0.00,WeatherDisplay:10.37,2013-03-09 11:07:00,
2013-03-09 06:12:00,34.6,24.8,30.32,SW,216,3.5,3.5,67,0.00,CLR,,0.00,WeatherDisplay:10.37,2013-03-09 11:12:00,
2013-03-09 06:17:00,34.5,24.3,30.32,SSW,197,5.0,5.0,66,0.00,CLR,,0.00,WeatherDisplay:10.37,2013-03-09 11:17:00,
2013-03-09 06:22:00,34.5,24.7,30.31,South,185,5.0,5.0,67,0.00,CLR,,0.00,WeatherDisplay:10.37,2013-03-09 11:22:00,
2013-03-09 06:27:00,34.5,24.3,30.31,South,182,6.0,6.0,66,0.00,CLR,,0.00,WeatherDisplay:10.37,2013-03-09 11:27:00,
2013-03-09 06:32:00,34.5,24.7,30.31,SSE,163,4.0,4.0,67,0.00,CLR,,0.00,WeatherDisplay:10.37,2013-03-09 11:32:00,
2013-03-09 06:37:00,34.4,24.6,30.31,SSE,167,2.0,2.0,67,0.00,CLR,,0.00,WeatherDisplay:10.37,2013-03-09 11:37:00,
2013-03-09 06:42:00,34.4,24.6,30.31,SSE,167,2.3,2.3,67,0.00,CLR,,0.00,WeatherDisplay:10.37,2013-03-09 11:42:00,
2013-03-09 06:47:00,34.4,24.6,30.31,SSE,159,4.6,4.6,67,0.00,CLR,,0.00,WeatherDisplay:10.37,2013-03-09 11:47:00,
2013-03-09 06:52:00,34.4,24.2,30.31,SSE,159,4.6,4.6,66,0.00,CLR,,0.00,WeatherDisplay:10.37,2013-03-09 11:52:00,
2013-03-09 06:57:00,34.4,24.6,30.31,SSE,159,2.3,0.0,67,0.00,CLR,,0.00,WeatherDisplay:10.37,2013-03-09 11:57:00,
2013-03-09 07:02:00,34.4,24.6,30.31,SSE,160,4.0,4.0,67,0.00,CLR,,0.00,WeatherDisplay:10.37,2013-03-09 12:02:00,
2013-03-09 07:07:00,34.4,24.6,30.31,South,178,4.0,4.0,67,0.00,CLR,,0.00,WeatherDisplay:10.37,2013-03-09 12:07:00,
2013-03-09 07:12:00,34.4,24.6,30.31,South,178,1.1,1.1,67,0.00,CLR,,0.00,WeatherDisplay:10.37,2013-03-09 12:12:00,
2013-03-09 07:17:00,34.4,24.6,30.31,South,178,2.3,2.3,67,0.00,CLR,,0.00,WeatherDisplay:10.37,2013-03-09 12:17:00,
2013-03-09 07:22:00,34.6,24.4,30.31,South,178,1.1,1.1,66,0.00,CLR,,0.00,WeatherDisplay:10.37,2013-03-09 12:22:00,
2013-03-09 07:27:00,34.8,24.6,30.31,SSE,168,1.1,1.1,66,0.00,CLR,,0.00,WeatherDisplay:10.37,2013-03-09 12:27:00,
2013-03-09 07:32:00,35.0,24.8,30.31,South,171,6.0,6.0,66,0.00,CLR,,0.00,WeatherDisplay:10.37,2013-03-09 12:32:00,
2013-03-09 07:37:00,35.3,24.7,30.31,South,173,4.0,4.0,65,0.00,CLR,,0.00,WeatherDisplay:10.37,2013-03-09 12:37:00,
2013-03-09 07:42:00,35.5,24.9,30.31,South,190,6.9,6.9,65,0.00,CLR,,0.00,WeatherDisplay:10.37,2013-03-09 12:42:00,
2013-03-09 07:47:00,35.7,24.7,30.31,South,170,7.0,7.0,64,0.00,CLR,,0.00,WeatherDisplay:10.37,2013-03-09 12:47:00,
2013-03-09 07:52:00,35.8,24.8,30.31,South,191,7.0,7.0,64,0.00,CLR,,0.00,WeatherDisplay:10.37,2013-03-09 12:52:00,
2013-03-09 07:57:00,35.9,24.9,30.31,SSE,160,4.0,4.0,64,0.00,CLR,,0.00,WeatherDisplay:10.37,2013-03-09 12:57:00,
2013-03-09 08:02:00,35.9,24.9,30.31,South,170,6.0,6.0,64,0.00,CLR,,0.00,WeatherDisplay:10.37,2013-03-09 13:02:00,
2013-03-09 08:07:00,35.8,24.8,30.31,South,178,5.0,5.0,64,0.00,CLR,,0.00,WeatherDisplay:10.37,2013-03-09 13:07:00,
2013-03-09 08:12:00,35.7,25.1,30.31,South,176,5.0,5.0,65,0.00,CLR,,0.00,WeatherDisplay:10.37,2013-03-09 13:12:00,
2013-03-09 08:17:00,35.7,25.1,30.31,South,189,3.5,3.5,65,0.00,CLR,,0.00,WeatherDisplay:10.37,2013-03-09 13:17:00,
2013-03-09 08:22:00,35.7,25.1,30.32,SSE,166,4.0,4.0,65,0.00,CLR,,0.00,WeatherDisplay:10.37,2013-03-09 13:22:00,
2013-03-09 08:27:00,35.9,25.3,30.33,South,187,4.6,4.6,65,0.00,CLR,,0.00,WeatherDisplay:10.37,2013-03-09 13:27:00,
2013-03-09 08:32:00,36.1,25.5,30.33,South,185,5.0,5.0,65,0.00,CLR,,0.00,WeatherDisplay:10.37,2013-03-09 13:32:00,
2013-03-09 08:37:00,36.3,25.3,30.34,South,175,3.5,3.5,64,0.00,CLR,,0.00,WeatherDisplay:10.37,2013-03-09 13:37:00,
2013-03-09 08:42:00,36.7,25.7,30.33,South,176,2.3,2.3,64,0.00,CLR,,0.00,WeatherDisplay:10.37,2013-03-09 13:42:00,
2013-03-09 08:47:00,36.9,25.9,30.34,South,180,6.9,6.9,64,0.00,CLR,,0.00,WeatherDisplay:10.37,2013-03-09 13:47:00,
2013-03-09 08:52:00,37.1,26.0,30.33,South,181,1.0,1.0,64,0.00,CLR,,0.00,WeatherDisplay:10.37,2013-03-09 13:52:00,
2013-03-09 08:57:00,37.6,26.5,30.33,South,182,3.5,0.0,64,0.00,CLR,,0.00,WeatherDisplay:10.37,2013-03-09 13:57:00,
2013-03-09 09:02:00,38.2,26.7,30.33,South,183,5.0,5.0,63,0.00,CLR,,0.00,WeatherDisplay:10.37,2013-03-09 14:02:00,
2013-03-09 09:07:00,38.6,26.7,30.33,South,175,2.0,2.0,62,0.00,CLR,,0.00,WeatherDisplay:10.37,2013-03-09 14:07:00,
2013-03-09 09:12:00,39.3,27.0,30.33,ESE,121,6.0,6.0,61,0.00,CLR,,0.00,WeatherDisplay:10.37,2013-03-09 14:12:00,
2013-03-09 09:17:00,40.0,27.2,30.34,South,172,4.0,4.0,60,0.00,CLR,,0.00,WeatherDisplay:10.37,2013-03-09 14:17:00,
2013-03-09 09:22:00,40.4,27.2,30.33,South,180,5.0,5.0,59,0.00,CLR,,0.00,WeatherDisplay:10.37,2013-03-09 14:22:00,
2013-03-09 09:27:00,40.8,27.6,30.33,South,178,1.1,0.0,59,0.00,CLR,,0.00,WeatherDisplay:10.37,2013-03-09 14:27:00,
2013-03-09 09:32:00,41.4,27.7,30.33,South,178,7.0,7.0,58,0.00,CLR,,0.00,WeatherDisplay:10.37,2013-03-09 14:32:00,
2013-03-09 09:37:00,42.0,28.3,30.33,South,182,2.3,2.3,58,0.00,CLR,,0.00,WeatherDisplay:10.37,2013-03-09 14:37:00,
2013-03-09 09:42:00,42.6,28.4,30.33,South,178,4.6,4.6,57,0.00,CLR,,0.00,WeatherDisplay:10.37,2013-03-09 14:42:00,
2013-03-09 09:47:00,42.9,28.3,30.33,SSW,193,3.5,3.5,56,0.00,CLR,,0.00,WeatherDisplay:10.37,2013-03-09 14:47:00,
2013-03-09 09:52:00,43.2,28.1,30.33,SSE,159,10.4,10.4,55,0.00,CLR,,0.00,WeatherDisplay:10.37,2013-03-09 14:52:00,
2013-03-09 09:57:00,43.1,27.6,30.34,South,190,8.1,8.1,54,0.00,CLR,,0.00,WeatherDisplay:10.37,2013-03-09 14:57:00,
2013-03-09 10:02:00,42.8,27.3,30.33,South,172,10.4,10.4,54,0.00,CLR,,0.00,WeatherDisplay:10.37,2013-03-09 15:02:00,
2013-03-09 10:07:00,42.9,28.3,30.33,South,180,4.0,4.0,56,0.00,CLR,,0.00,WeatherDisplay:10.37,2013-03-09 15:07:00,
2013-03-09 10:12:00,43.7,28.6,30.33,SSW,195,5.0,5.0,55,0.00,CLR,,0.00,WeatherDisplay:10.37,2013-03-09 15:12:00,
2013-03-09 10:17:00,44.7,29.1,30.32,SW,222,8.1,8.1,54,0.00,CLR,,0.00,WeatherDisplay:10.37,2013-03-09 15:17:00,
2013-03-09 10:22:00,45.0,28.4,30.32,SSW,198,9.2,9.2,52,0.00,CLR,,0.00,WeatherDisplay:10.37,2013-03-09 15:22:00,
2013-03-09 10:27:00,45.2,29.1,30.32,South,170,2.3,2.3,53,0.00,CLR,,0.00,WeatherDisplay:10.37,2013-03-09 15:27:00,
2013-03-09 10:32:00,45.9,29.7,30.32,South,185,7.0,7.0,53,0.00,CLR,,0.00,WeatherDisplay:10.37,2013-03-09 15:32:00,
2013-03-09 10:37:00,46.5,29.3,30.31,South,180,10.4,10.4,51,0.00,CLR,,0.00,WeatherDisplay:10.37,2013-03-09 15:37:00,
2013-03-09 10:42:00,46.4,28.8,30.31,SSE,150,6.0,6.0,50,0.00,CLR,,0.00,WeatherDisplay:10.37,2013-03-09 15:42:00,
2013-03-09 10:47:00,46.8,29.6,30.30,South,170,9.2,9.2,51,0.00,CLR,,0.00,WeatherDisplay:10.37,2013-03-09 15:47:00,
2013-03-09 10:52:00,47.2,29.5,30.31,SE,139,10.4,10.4,50,0.00,CLR,,0.00,WeatherDisplay:10.37,2013-03-09 15:52:00,
2013-03-09 10:57:00,47.5,29.8,30.30,SW,217,10.0,10.0,50,0.00,CLR,,0.00,WeatherDisplay:10.37,2013-03-09 15:57:00,
2013-03-09 11:02:00,47.8,30.0,30.31,South,171,5.0,5.0,50,0.00,FEW,,0.00,WeatherDisplay:10.37,2013-03-09 16:02:00,
2013-03-09 11:07:00,48.2,30.4,30.30,SSE,166,8.0,8.0,50,0.00,FEW,,0.00,WeatherDisplay:10.37,2013-03-09 16:07:00,
2013-03-09 11:12:00,48.3,30.0,30.30,ESE,122,5.8,5.8,49,0.00,FEW,,0.00,WeatherDisplay:10.37,2013-03-09 16:12:00,
2013-03-09 11:17:00,48.5,30.2,30.29,South,174,5.0,5.0,49,0.00,FEW,,0.00,WeatherDisplay:10.37,2013-03-09 16:17:00,
2013-03-09 11:22:00,49.2,31.3,30.30,South,181,1.1,1.1,50,0.00,FEW,,0.00,WeatherDisplay:10.37,2013-03-09 16:22:00,
2013-03-09 11:27:00,49.4,31.0,30.29,South,185,6.0,6.0,49,0.00,FEW,,0.00,WeatherDisplay:10.37,2013-03-09 16:27:00,
2013-03-09 11:32:00,50.0,31.6,30.30,SSE,154,5.0,5.0,49,0.00,FEW,,0.00,WeatherDisplay:10.37,2013-03-09 16:32:00,
2013-03-09 11:37:00,50.4,31.4,30.30,South,187,6.9,6.9,48,0.00,FEW,,0.00,WeatherDisplay:10.37,2013-03-09 16:37:00,
2013-03-09 11:42:00,50.8,31.3,30.30,SSW,201,4.0,4.0,47,0.00,FEW,,0.00,WeatherDisplay:10.37,2013-03-09 16:42:00,
2013-03-09 11:47:00,51.3,31.7,30.30,South,180,4.6,4.6,47,0.00,FEW,,0.00,WeatherDisplay:10.37,2013-03-09 16:47:00,
2013-03-09 11:52:00,51.5,31.9,30.30,South,179,5.8,5.8,47,0.00,FEW,,0.00,WeatherDisplay:10.37,2013-03-09 16:52:00,
2013-03-09 11:57:00,51.5,32.4,30.29,SW,220,3.5,3.5,48,0.00,FEW,,0.00,WeatherDisplay:10.37,2013-03-09 16:57:00,
2013-03-09 12:02:00,51.8,32.7,30.29,South,171,5.0,5.0,48,0.00,CLR,,0.00,WeatherDisplay:10.37,2013-03-09 17:02:00,
2013-03-09 12:07:00,52.2,33.1,30.29,South,177,4.6,4.6,48,0.00,CLR,,0.00,WeatherDisplay:10.37,2013-03-09 17:07:00,
2013-03-09 12:12:00,52.5,32.3,30.29,South,183,7.0,7.0,46,0.00,CLR,,0.00,WeatherDisplay:10.37,2013-03-09 17:12:00,
2013-03-09 12:17:00,52.9,33.2,30.29,South,169,2.3,2.3,47,0.00,CLR,,0.00,WeatherDisplay:10.37,2013-03-09 17:17:00,
2013-03-09 12:22:00,53.2,32.4,30.29,South,170,4.0,4.0,45,0.00,CLR,,0.00,WeatherDisplay:10.37,2013-03-09 17:22:00,
2013-03-09 12:27:00,53.7,32.3,30.28,South,182,6.0,6.0,44,0.00,CLR,,0.00,WeatherDisplay:10.37,2013-03-09 17:27:00,
2013-03-09 12:33:00,53.4,32.0,30.28,South,186,3.5,3.5,44,0.00,CLR,,0.00,WeatherDisplay:10.37,2013-03-09 17:33:00,
2013-03-09 12:38:00,53.4,31.4,30.28,South,185,6.9,6.9,43,0.00,CLR,,0.00,WeatherDisplay:10.37,2013-03-09 17:38:00,
2013-03-09 12:43:00,53.7,31.1,30.28,SSW,202,6.0,6.0,42,0.00,CLR,,0.00,WeatherDisplay:10.37,2013-03-09 17:43:00,
2013-03-09 12:48:00,53.9,32.5,30.28,SSW,192,2.3,2.3,44,0.00,CLR,,0.00,WeatherDisplay:10.37,2013-03-09 17:48:00,
2013-03-09 12:53:00,54.0,32.0,30.28,South,182,6.0,6.0,43,0.00,CLR,,0.00,WeatherDisplay:10.37,2013-03-09 17:53:00,
2013-03-09 12:58:00,54.7,32.6,30.27,South,181,4.6,4.6,43,0.00,CLR,,0.00,WeatherDisplay:10.37,2013-03-09 17:58:00,
2013-03-09 13:03:00,55.3,32.0,30.26,SSW,196,5.0,5.0,41,0.00,CLR,,0.00,WeatherDisplay:10.37,2013-03-09 18:03:00,
2013-03-09 13:08:00,54.9,32.2,30.26,SSW,194,5.0,5.0,42,0.00,CLR,,0.00,WeatherDisplay:10.37,2013-03-09 18:08:00,
2013-03-09 13:13:00,55.0,32.3,30.25,South,178,8.1,8.1,42,0.00,CLR,,0.00,WeatherDisplay:10.37,2013-03-09 18:13:00,
2013-03-09 13:18:00,56.0,33.8,30.24,South,171,2.3,2.3,43,0.00,CLR,,0.00,WeatherDisplay:10.37,2013-03-09 18:18:00,
2013-03-09 13:23:00,56.9,33.4,30.24,South,190,5.8,5.8,41,0.00,CLR,,0.00,WeatherDisplay:10.37,2013-03-09 18:23:00,
2013-03-09 13:28:00,57.1,33.0,30.24,South,191,5.0,5.0,40,0.00,CLR,,0.00,WeatherDisplay:10.37,2013-03-09 18:28:00,
2013-03-09 13:33:00,57.4,33.3,30.24,South,181,9.2,9.2,40,0.00,CLR,,0.00,WeatherDisplay:10.37,2013-03-09 18:33:00,
2013-03-09 13:38:00,58.1,33.9,30.24,SSW,203,1.1,1.1,40,0.00,CLR,,0.00,WeatherDisplay:10.37,2013-03-09 18:38:00,
2013-03-09 13:43:00,58.2,33.3,30.24,SSW,203,4.0,4.0,39,0.00,CLR,,0.00,WeatherDisplay:10.37,2013-03-09 18:43:00,
2013-03-09 13:48:00,59.0,33.4,30.23,SSW,195,1.1,1.1,38,0.00,CLR,,0.00,WeatherDisplay:10.37,2013-03-09 18:48:00,
2013-03-09 13:53:00,59.4,33.1,30.22,SSW,195,4.0,4.0,37,0.00,CLR,,0.00,WeatherDisplay:10.37,2013-03-09 18:53:00,
2013-03-09 13:58:00,60.3,33.9,30.22,SSW,196,3.0,3.0,37,0.00,CLR,,0.00,WeatherDisplay:10.37,2013-03-09 18:58:00,
2013-03-09 14:03:00,60.8,33.7,30.22,SSW,193,5.0,5.0,36,0.00,CLR,,0.00,WeatherDisplay:10.37,2013-03-09 19:03:00,
2013-03-09 14:08:00,60.7,34.3,30.21,SSW,195,3.5,3.5,37,0.00,CLR,,0.00,WeatherDisplay:10.37,2013-03-09 19:08:00,
2013-03-09 14:14:00,61.1,31.8,30.22,South,184,8.1,8.1,33,0.00,CLR,,0.00,WeatherDisplay:10.37,2013-03-09 19:14:00,
2013-03-09 14:19:00,60.9,31.6,30.21,South,182,6.9,6.9,33,0.00,CLR,,0.00,WeatherDisplay:10.37,2013-03-09 19:19:00,
2013-03-09 14:24:00,60.9,31.6,30.21,SSW,197,8.0,8.0,33,0.00,CLR,,0.00,WeatherDisplay:10.37,2013-03-09 19:24:00,
2013-03-09 14:29:00,60.7,32.1,30.21,SW,222,6.0,6.0,34,0.00,CLR,,0.00,WeatherDisplay:10.37,2013-03-09 19:29:00,
2013-03-09 14:34:00,60.5,32.0,30.20,South,185,6.9,6.9,34,0.00,CLR,,0.00,WeatherDisplay:10.37,2013-03-09 19:34:00,
2013-03-09 14:39:00,61.4,32.8,30.20,South,179,5.0,5.0,34,0.00,CLR,,0.00,WeatherDisplay:10.37,2013-03-09 19:39:00,
2013-03-09 14:44:00,62.2,32.7,30.20,South,187,5.0,5.0,33,0.00,CLR,,0.00,WeatherDisplay:10.37,2013-03-09 19:44:00,
2013-03-09 14:49:00,62.5,32.2,30.19,SW,216,2.3,2.3,32,0.00,CLR,,0.00,WeatherDisplay:10.37,2013-03-09 19:49:00,
2013-03-09 14:54:00,63.5,33.9,30.19,SSW,207,3.0,3.0,33,0.00,CLR,,0.00,WeatherDisplay:10.37,2013-03-09 19:54:00,
2013-03-09 14:59:00,64.2,33.7,30.19,South,180,5.8,5.8,32,0.00,CLR,,0.00,WeatherDisplay:10.37,2013-03-09 19:59:00,
2013-03-09 15:04:00,64.0,32.7,30.19,SSW,195,5.0,5.0,31,0.00,CLR,,0.00,WeatherDisplay:10.37,2013-03-09 20:04:00,
2013-03-09 15:09:00,64.0,32.7,30.18,South,191,3.5,3.5,31,0.00,CLR,,0.00,WeatherDisplay:10.37,2013-03-09 20:09:00,
2013-03-09 15:14:00,64.1,33.6,30.19,South,191,2.0,2.0,32,0.00,CLR,,0.00,WeatherDisplay:10.37,2013-03-09 20:14:00,
2013-03-09 15:19:00,63.5,32.3,30.19,SW,223,5.0,5.0,31,0.00,CLR,,0.00,WeatherDisplay:10.37,2013-03-09 20:19:00,
2013-03-09 15:24:00,63.5,33.9,30.18,SSW,203,3.0,3.0,33,0.00,CLR,,0.00,WeatherDisplay:10.37,2013-03-09 20:24:00,
2013-03-09 15:29:00,63.2,32.8,30.18,SW,221,5.8,5.8,32,0.00,CLR,,0.00,WeatherDisplay:10.37,2013-03-09 20:29:00,
2013-03-09 15:34:00,63.9,34.2,30.18,South,182,6.0,6.0,33,0.00,CLR,,0.00,WeatherDisplay:10.37,2013-03-09 20:34:00,
2013-03-09 15:39:00,64.9,33.5,30.18,South,179,2.0,2.0,31,0.00,CLR,,0.00,WeatherDisplay:10.37,2013-03-09 20:39:00,
2013-03-09 15:44:00,65.4,34.0,30.18,SSW,199,6.0,6.0,31,0.00,CLR,,0.00,WeatherDisplay:10.37,2013-03-09 20:44:00,
2013-03-09 15:49:00,64.7,33.3,30.18,SW,225,1.1,1.1,31,0.00,CLR,,0.00,WeatherDisplay:10.37,2013-03-09 20:49:00,
2013-03-09 15:54:00,65.0,32.8,30.18,SW,225,3.5,3.5,30,0.00,CLR,,0.00,WeatherDisplay:10.37,2013-03-09 20:54:00,
2013-03-09 15:59:00,65.5,30.6,30.18,South,176,8.0,8.0,27,0.00,CLR,,0.00,WeatherDisplay:10.37,2013-03-09 20:59:00,
2013-03-09 16:04:00,65.4,32.3,30.18,South,177,9.2,9.2,29,0.00,CLR,,0.00,WeatherDisplay:10.37,2013-03-09 21:04:00,
2013-03-09 16:09:00,65.9,31.8,30.18,South,180,5.0,5.0,28,0.00,CLR,,0.00,WeatherDisplay:10.37,2013-03-09 21:09:00,
2013-03-09 16:14:00,66.1,31.1,30.17,South,189,6.9,6.9,27,0.00,CLR,,0.00,WeatherDisplay:10.37,2013-03-09 21:14:00,
2013-03-09 16:19:00,65.4,32.3,30.17,SSW,193,1.1,0.0,29,0.00,CLR,,0.00,WeatherDisplay:10.37,2013-03-09 21:19:00,
2013-03-09 16:24:00,65.0,31.1,30.17,SSW,193,4.0,4.0,28,0.00,CLR,,0.00,WeatherDisplay:10.37,2013-03-09 21:24:00,
2013-03-09 16:29:00,65.1,32.0,30.17,SSW,199,4.6,4.6,29,0.00,CLR,,0.00,WeatherDisplay:10.37,2013-03-09 21:29:00,
2013-03-09 16:34:00,65.2,31.2,30.16,South,187,9.2,9.2,28,0.00,CLR,,0.00,WeatherDisplay:10.37,2013-03-09 21:34:00,
2013-03-09 16:39:00,64.9,31.0,30.17,SSW,209,5.8,5.8,28,0.00,CLR,,0.00,WeatherDisplay:10.37,2013-03-09 21:39:00,
2013-03-09 16:45:00,64.3,30.5,30.17,SSW,197,4.0,4.0,28,0.00,CLR,,0.00,WeatherDisplay:10.37,2013-03-09 21:45:00,
2013-03-09 16:50:00,63.4,29.7,30.17,WSW,244,5.0,5.0,28,0.00,CLR,,0.00,WeatherDisplay:10.37,2013-03-09 21:50:00,
2013-03-09 16:55:00,63.1,30.3,30.17,WSW,245,4.0,4.0,29,0.00,CLR,,0.00,WeatherDisplay:10.37,2013-03-09 21:55:00,
2013-03-09 17:00:00,63.0,30.2,30.17,South,187,3.5,3.5,29,0.00,CLR,,0.00,WeatherDisplay:10.37,2013-03-09 22:00:00,
2013-03-09 17:05:00,63.0,30.2,30.16,South,190,5.0,5.0,29,0.00,SCT,,0.00,WeatherDisplay:10.37,2013-03-09 22:05:00,
2013-03-09 17:10:00,62.9,31.0,30.16,SSW,194,4.0,4.0,30,0.00,SCT,,0.00,WeatherDisplay:10.37,2013-03-09 22:10:00,
2013-03-09 17:15:00,62.7,30.8,30.16,SSW,196,4.0,4.0,30,0.00,SCT,,0.00,WeatherDisplay:10.37,2013-03-09 22:15:00,
2013-03-09 17:20:00,62.9,31.8,30.16,SSW,199,1.1,1.1,31,0.00,SCT,,0.00,WeatherDisplay:10.37,2013-03-09 22:20:00,
2013-03-09 17:25:00,63.1,31.9,30.15,South,191,5.0,5.0,31,0.00,SCT,,0.00,WeatherDisplay:10.37,2013-03-09 22:25:00,
2013-03-09 17:30:00,63.1,31.1,30.15,South,182,4.6,4.6,30,0.00,SCT,,0.00,WeatherDisplay:10.37,2013-03-09 22:30:00,
2013-03-09 17:35:00,62.8,32.5,30.15,South,182,0.0,0.0,32,0.00,SCT,,0.00,WeatherDisplay:10.37,2013-03-09 22:35:00,
2013-03-09 17:40:00,62.6,32.3,30.15,South,182,4.0,4.0,32,0.00,SCT,,0.00,WeatherDisplay:10.37,2013-03-09 22:40:00,
2013-03-09 17:45:00,62.1,31.9,30.16,South,183,4.0,4.0,32,0.00,SCT,,0.00,WeatherDisplay:10.37,2013-03-09 22:45:00,
2013-03-09 17:50:00,62.0,31.8,30.15,South,183,5.0,5.0,32,0.00,SCT,,0.00,WeatherDisplay:10.37,2013-03-09 22:50:00,
2013-03-09 17:55:00,61.9,31.7,30.15,South,185,1.1,1.1,32,0.00,SCT,,0.00,WeatherDisplay:10.37,2013-03-09 22:55:00,
2013-03-09 18:00:00,61.8,32.4,30.15,South,185,2.3,2.3,33,0.00,SCT,,0.00,WeatherDisplay:10.37,2013-03-09 23:00:00,
2013-03-09 18:05:00,61.6,32.9,30.14,South,183,1.1,1.1,34,0.00,SCT,,0.00,WeatherDisplay:10.37,2013-03-09 23:05:00,
2013-03-09 18:10:00,61.5,32.1,30.14,South,185,5.0,5.0,33,0.00,SCT,,0.00,WeatherDisplay:10.37,2013-03-09 23:10:00,
2013-03-09 18:15:00,61.5,32.8,30.14,South,185,0.0,0.0,34,0.00,SCT,,0.00,WeatherDisplay:10.37,2013-03-09 23:15:00,
2013-03-09 18:20:00,61.3,31.9,30.15,South,185,2.3,2.3,33,0.00,SCT,,0.00,WeatherDisplay:10.37,2013-03-09 23:20:00,
2013-03-09 18:25:00,61.1,31.8,30.15,South,185,1.1,0.0,33,0.00,SCT,,0.00,WeatherDisplay:10.37,2013-03-09 23:25:00,
2013-03-09 18:30:00,61.0,32.4,30.15,South,185,1.1,1.1,34,0.00,SCT,,0.00,WeatherDisplay:10.37,2013-03-09 23:30:00,
2013-03-09 18:35:00,60.8,32.2,30.15,South,185,2.0,2.0,34,0.00,SCT,,0.00,WeatherDisplay:10.37,2013-03-09 23:35:00,
2013-03-09 18:40:00,60.7,32.9,30.15,South,185,0.0,0.0,35,0.00,SCT,,0.00,WeatherDisplay:10.37,2013-03-09 23:40:00,
2013-03-09 18:45:00,60.5,32.7,30.15,South,185,1.1,0.0,35,0.00,SCT,,0.00,WeatherDisplay:10.37,2013-03-09 23:45:00,
2013-03-09 18:50:00,60.4,32.6,30.15,South,185,0.0,0.0,35,0.00,SCT,,0.00,WeatherDisplay:10.37,2013-03-09 23:50:00,
2013-03-09 18:55:00,60.2,32.4,30.15,South,185,2.0,2.0,35,0.00,SCT,,0.00,WeatherDisplay:10.37,2013-03-09 23:55:00,
2013-03-09 19:00:00,60.2,32.4,30.15,South,185,3.5,3.5,35,0.00,SCT,,0.00,WeatherDisplay:10.37,2013-03-10 00:00:00,
2013-03-09 19:05:00,60.2,32.4,30.15,South,185,2.3,2.3,35,0.00,OVC,,0.00,WeatherDisplay:10.37,2013-03-10 00:05:00,
2013-03-09 19:10:00,60.1,32.3,30.15,South,185,1.1,1.1,35,0.00,OVC,,0.00,WeatherDisplay:10.37,2013-03-10 00:10:00,
2013-03-09 19:15:00,60.0,32.9,30.15,South,185,1.1,1.1,36,0.00,OVC,,0.00,WeatherDisplay:10.37,2013-03-10 00:15:00,
2013-03-09 19:20:00,60.0,32.9,30.15,South,185,1.1,1.1,36,0.00,OVC,,0.00,WeatherDisplay:10.37,2013-03-10 00:20:00,
2013-03-09 19:25:00,59.9,32.9,30.15,South,185,1.1,1.1,36,0.00,OVC,,0.00,WeatherDisplay:10.37,2013-03-10 00:25:00,
2013-03-09 19:30:00,59.8,33.5,30.15,South,185,0.0,0.0,37,0.00,OVC,,0.00,WeatherDisplay:10.37,2013-03-10 00:30:00,
2013-03-09 19:35:00,59.7,32.7,30.15,South,185,0.0,0.0,36,0.00,OVC,,0.00,WeatherDisplay:10.37,2013-03-10 00:35:00,
2013-03-09 19:40:00,59.6,33.3,30.14,South,185,1.1,1.1,37,0.00,OVC,,0.00,WeatherDisplay:10.37,2013-03-10 00:40:00,
2013-03-09 19:45:00,59.3,33.0,30.14,South,185,1.1,1.1,37,0.00,OVC,,0.00,WeatherDisplay:10.37,2013-03-10 00:45:00,
2013-03-09 19:51:00,59.0,33.4,30.14,South,185,2.3,0.0,38,0.00,OVC,,0.00,WeatherDisplay:10.37,2013-03-10 00:51:00,
2013-03-09 19:56:00,59.0,33.4,30.15,South,185,1.1,1.1,38,0.00,OVC,,0.00,WeatherDisplay:10.37,2013-03-10 00:56:00,
2013-03-09 20:01:00,58.9,34.0,30.15,South,185,0.0,0.0,39,0.00,OVC,,0.00,WeatherDisplay:10.37,2013-03-10 01:01:00,
2013-03-09 20:06:00,58.6,33.7,30.14,South,185,0.0,0.0,39,0.00,OVC,,0.00,WeatherDisplay:10.37,2013-03-10 01:06:00,
2013-03-09 20:11:00,58.4,34.2,30.14,South,185,0.0,0.0,40,0.00,OVC,,0.00,WeatherDisplay:10.37,2013-03-10 01:11:00,
2013-03-09 20:16:00,58.2,34.6,30.14,South,185,0.0,0.0,41,0.00,OVC,,0.00,WeatherDisplay:10.37,2013-03-10 01:16:00,
2013-03-09 20:21:00,58.0,34.4,30.14,South,185,0.0,0.0,41,0.00,OVC,,0.00,WeatherDisplay:10.37,2013-03-10 01:21:00,
2013-03-09 20:26:00,57.8,34.2,30.14,South,185,0.0,0.0,41,0.00,OVC,,0.00,WeatherDisplay:10.37,2013-03-10 01:26:00,
2013-03-09 20:31:00,57.5,34.6,30.15,South,185,0.0,0.0,42,0.00,OVC,,0.00,WeatherDisplay:10.37,2013-03-10 01:31:00,
2013-03-09 20:36:00,57.3,34.4,30.15,South,185,0.0,0.0,42,0.00,OVC,,0.00,WeatherDisplay:10.37,2013-03-10 01:36:00,
2013-03-09 20:41:00,57.1,34.8,30.14,South,185,0.0,0.0,43,0.00,OVC,,0.00,WeatherDisplay:10.37,2013-03-10 01:41:00,
2013-03-09 20:46:00,56.9,34.6,30.15,South,185,0.0,0.0,43,0.00,OVC,,0.00,WeatherDisplay:10.37,2013-03-10 01:46:00,
2013-03-09 20:51:00,56.8,34.5,30.14,South,185,0.0,0.0,43,0.00,OVC,,0.00,WeatherDisplay:10.37,2013-03-10 01:51:00,
2013-03-09 20:56:00,56.6,34.3,30.15,South,185,0.0,0.0,43,0.00,OVC,,0.00,WeatherDisplay:10.37,2013-03-10 01:56:00,
2013-03-09 21:01:00,56.5,34.3,30.14,South,185,0.0,0.0,43,0.00,OVC,,0.00,WeatherDisplay:10.37,2013-03-10 02:01:00,
2013-03-09 21:06:00,56.4,34.7,30.14,South,185,0.0,0.0,44,0.00,OVC,,0.00,WeatherDisplay:10.37,2013-03-10 02:06:00,
2013-03-09 21:11:00,56.3,34.6,30.14,South,185,0.0,0.0,44,0.00,OVC,,0.00,WeatherDisplay:10.37,2013-03-10 02:11:00,
2013-03-09 21:16:00,56.3,35.2,30.13,South,185,0.0,0.0,45,0.00,OVC,,0.00,WeatherDisplay:10.37,2013-03-10 02:16:00,
2013-03-09 21:21:00,56.2,34.6,30.13,South,185,1.1,0.0,44,0.00,OVC,,0.00,WeatherDisplay:10.37,2013-03-10 02:21:00,
2013-03-09 21:26:00,56.2,34.6,30.14,South,185,0.0,0.0,44,0.00,OVC,,0.00,WeatherDisplay:10.37,2013-03-10 02:26:00,
2013-03-09 21:31:00,56.3,35.2,30.13,South,185,1.1,0.0,45,0.00,OVC,,0.00,WeatherDisplay:10.37,2013-03-10 02:31:00,
2013-03-09 21:36:00,56.2,34.6,30.13,South,185,0.0,0.0,44,0.00,OVC,,0.00,WeatherDisplay:10.37,2013-03-10 02:36:00,
2013-03-09 21:41:00,56.1,34.5,30.13,South,185,0.0,0.0,44,0.00,OVC,,0.00,WeatherDisplay:10.37,2013-03-10 02:41:00,
2013-03-09 21:46:00,56.0,34.4,30.13,South,185,4.0,4.0,44,0.00,OVC,,0.00,WeatherDisplay:10.37,2013-03-10 02:46:00,
2013-03-09 21:51:00,55.9,34.8,30.13,South,185,1.1,0.0,45,0.00,OVC,,0.00,WeatherDisplay:10.37,2013-03-10 02:51:00,
2013-03-09 21:56:00,55.7,34.7,30.13,South,185,2.3,0.0,45,0.00,OVC,,0.00,WeatherDisplay:10.37,2013-03-10 02:56:00,
2013-03-09 22:01:00,55.6,34.6,30.13,South,183,1.1,1.1,45,0.00,OVC,,0.00,WeatherDisplay:10.37,2013-03-10 03:01:00,
2013-03-09 22:06:00,55.7,34.1,30.13,South,183,1.0,1.0,44,0.00,BKN,,0.00,WeatherDisplay:10.37,2013-03-10 03:06:00,
2013-03-09 22:11:00,55.8,34.2,30.13,South,183,0.0,0.0,44,0.00,BKN,,0.00,WeatherDisplay:10.37,2013-03-10 03:11:00,
2013-03-09 22:16:00,55.8,34.8,30.13,South,183,1.1,0.0,45,0.00,BKN,,0.00,WeatherDisplay:10.37,2013-03-10 03:16:00,
2013-03-09 22:21:00,55.9,34.3,30.13,South,183,2.3,2.3,44,0.00,BKN,,0.00,WeatherDisplay:10.37,2013-03-10 03:21:00,
2013-03-09 22:26:00,56.1,33.9,30.13,South,181,6.0,6.0,43,0.00,BKN,,0.00,WeatherDisplay:10.37,2013-03-10 03:26:00,
2013-03-09 22:31:00,56.3,34.1,30.13,South,183,3.5,3.5,43,0.00,BKN,,0.00,WeatherDisplay:10.37,2013-03-10 03:31:00,
2013-03-09 22:36:00,56.4,34.2,30.13,South,184,4.0,4.0,43,0.00,BKN,,0.00,WeatherDisplay:10.37,2013-03-10 03:36:00,
2013-03-09 22:41:00,56.4,34.2,30.13,South,184,5.0,5.0,43,0.00,BKN,,0.00,WeatherDisplay:10.37,2013-03-10 03:41:00,
2013-03-09 22:46:00,56.4,34.2,30.12,South,188,3.5,3.5,43,0.00,BKN,,0.00,WeatherDisplay:10.37,2013-03-10 03:46:00,
2013-03-09 22:51:00,56.3,34.1,30.12,South,186,3.5,3.5,43,0.00,BKN,,0.00,WeatherDisplay:10.37,2013-03-10 03:51:00,
2013-03-09 22:56:00,56.1,34.5,30.12,South,185,4.6,4.6,44,0.00,BKN,,0.00,WeatherDisplay:10.37,2013-03-10 03:56:00,
2013-03-09 23:01:00,55.9,34.3,30.12,South,186,8.1,8.1,44,0.00,BKN,,0.00,WeatherDisplay:10.37,2013-03-10 04:01:00,
2013-03-09 23:06:00,55.8,34.2,30.11,South,185,6.9,6.9,44,0.00,FEW,,0.00,WeatherDisplay:10.37,2013-03-10 04:06:00,
2013-03-09 23:11:00,55.7,34.1,30.11,South,190,6.0,6.0,44,0.00,FEW,,0.00,WeatherDisplay:10.37,2013-03-10 04:11:00,
2013-03-09 23:16:00,55.7,34.7,30.11,SSW,192,3.5,3.5,45,0.00,FEW,,0.00,WeatherDisplay:10.37,2013-03-10 04:16:00,
2013-03-09 23:21:00,55.7,34.7,30.10,South,190,4.0,4.0,45,0.00,FEW,,0.00,WeatherDisplay:10.37,2013-03-10 04:21:00,
2013-03-09 23:26:00,55.7,34.1,30.10,SSW,192,5.0,5.0,44,0.00,FEW,,0.00,WeatherDisplay:10.37,2013-03-10 04:26:00,
2013-03-09 23:31:00,55.8,34.2,30.10,South,189,5.0,5.0,44,0.00,FEW,,0.00,WeatherDisplay:10.37,2013-03-10 04:31:00,
2013-03-09 23:36:00,55.8,33.6,30.10,SSW,196,8.1,8.1,43,0.00,FEW,,0.00,WeatherDisplay:10.37,2013-03-10 04:36:00,
2013-03-09 23:41:00,55.8,33.6,30.10,South,189,4.0,4.0,43,0.00,FEW,,0.00,WeatherDisplay:10.37,2013-03-10 04:41:00,
2013-03-09 23:46:00,55.7,32.9,30.10,South,182,7.0,7.0,42,0.00,FEW,,0.00,WeatherDisplay:10.37,2013-03-10 04:46:00,
2013-03-09 23:51:00,55.7,32.9,30.10,SW,226,6.0,6.0,42,0.00,FEW,,0.00,WeatherDisplay:10.37,2013-03-10 04:51:00,
2013-03-09 23:56:00,55.7,32.9,30.10,South,178,7.0,7.0,42,0.00,FEW,,0.00,WeatherDisplay:10.37,2013-03-10 04:56:00,